FW0087 Weather Reports


time (UTC)temp
C
wind
direction
speed
KPH
gust
KPH
rain 1hr
cm
rain 24hr
cm
rain mn
cm
humidity
%
barometer
mb
20260507051029 5 287 0.0 3.2 0.00 1.75 0.00 90 1012.6
20260507050530 5 294 0.0 1.6 0.00 1.75 0.00 90 1012.7
20260507050039 5 237 0.0 3.2 0.00 1.75 0.00 90 1012.8
20260507045527 5 259 0.0 3.2 0.00 1.88 0.00 90 1012.7
20260507045026 5 263 0.0 3.2 0.00 1.88 0.00 91 1012.6
20260507044525 5 234 0.0 4.8 0.00 1.88 0.00 91 1012.4
20260507044027 5 49 0.0 4.8 0.00 1.88 0.00 91 1012.4
20260507043525 5 315 0.0 6.4 0.00 1.88 0.00 91 1012.4
20260507043022 5 320 1.6 6.4 0.00 1.88 0.00 91 1012.5
20260507042521 5 293 0.0 3.2 0.00 1.88 0.00 91 1012.4
20260507042019 5 287 0.0 6.4 0.00 1.88 0.00 91 1012.4
20260507041518 5 288 0.0 6.4 0.00 1.88 0.00 91 1012.4
20260507041019 5 290 1.6 6.4 0.00 1.88 0.00 91 1012.3
20260507040517 5 30 0.0 6.4 0.00 1.88 0.00 91 1012.3
20260507040016 5 319 0.0 6.4 0.00 1.88 0.00 91 1012.2
20260507035514 5 263 0.0 4.8 0.00 2.03 1.88 91 1012.2
20260507035017 5 272 0.0 4.8 0.00 2.03 1.88 91 1012.1
20260507034513 5 163 0.0 4.8 0.00 2.03 1.88 91 1012.1
20260507034113 5 223 0.0 3.2 0.00 2.03 1.88 91 1012.1
20260507033513 5 259 0.0 3.2 0.00 2.03 1.88 91 1012.0
20260507033012 5 271 0.0 3.2 0.00 2.03 1.88 90 1011.9
20260507032513 5 279 0.0 3.2 0.00 2.03 1.88 90 1011.9
20260507032012 5 282 0.0 1.6 0.00 2.03 1.88 90 1011.9
20260507031511 5 313 0.0 8.0 0.00 2.03 1.88 90 1011.9
20260507031011 5 297 0.0 6.4 0.00 2.03 1.88 90 1011.9
20260507030510 5 324 0.0 3.2 0.00 2.03 1.88 90 1011.8
20260507030013 5 350 0.0 4.8 0.00 2.03 1.88 90 1012.0
20260507025510 5 306 0.0 4.8 0.00 2.24 1.88 90 1012.0
20260507025009 5 291 0.0 6.4 0.00 2.24 1.88 90 1012.1
20260507024509 5 231 1.6 6.4 0.00 2.24 1.88 89 1012.0
20260507024010 5 36 0.0 3.2 0.00 2.24 1.88 89 1012.0
20260507023508 5 289 0.0 3.2 0.00 2.24 1.88 89 1012.0
20260507023008 5 305 0.0 3.2 0.00 2.24 1.88 89 1012.0
20260507022508 5 324 0.0 4.8 0.03 2.24 1.88 89 1011.9
20260507022010 5 74 0.0 4.8 0.03 2.24 1.88 89 1011.9
20260507021507 6 343 0.0 4.8 0.03 2.24 1.88 89 1012.0
20260507021007 6 9 0.0 6.4 0.03 2.24 1.88 89 1012.1
20260507020507 6 351 1.6 6.4 0.03 2.24 1.88 88 1012.1
20260507020007 6 355 1.6 6.4 0.03 2.24 1.88 89 1011.9
20260507015506 6 344 1.6 6.4 0.03 2.44 1.88 89 1011.9
20260507015007 6 337 1.6 8.0 0.03 2.44 1.88 89 1011.9
20260507014505 6 338 1.6 8.0 0.03 2.44 1.88 90 1011.8
20260507014005 6 355 0.0 4.8 0.03 2.44 1.88 90 1011.8
20260507013504 6 344 0.0 4.8 0.03 2.44 1.88 90 1011.9
20260507013004 7 253 0.0 4.8 0.03 2.44 1.88 90 1011.9
20260507012504 7 29 0.0 1.6 0.00 2.41 1.85 90 1011.8
20260507012006 7 29 0.0 0.0 0.00 2.41 1.85 90 1011.8
20260507011503 7 29 0.0 0.0 0.00 2.41 1.85 89 1011.7
20260507011002 7 29 0.0 0.0 0.00 2.41 1.85 89 1011.5
20260507010501 7 29 0.0 0.0 0.00 2.41 1.85 89 1011.4
20260507010001 7 29 0.0 0.0 0.00 2.41 1.85 89 1011.4
20260507005601 7 29 0.0 1.6 0.00 2.67 1.85 89 1011.4
20260507005100 7 29 0.0 1.6 0.00 2.67 1.85 89 1011.2
20260507004559 7 53 0.0 1.6 0.00 2.67 1.85 89 1011.1
20260507004059 7 273 0.0 1.6 0.00 2.67 1.85 89 1011.2
20260507003558 7 273 0.0 1.6 0.00 2.67 1.85 89 1011.0
20260507003058 7 273 0.0 1.6 0.00 2.67 1.85 88 1011.1
20260507002557 7 273 0.0 1.6 0.00 2.67 1.85 88 1011.0
20260507002057 7 273 0.0 0.0 0.00 2.67 1.85 87 1010.8
20260507001605 7 273 0.0 0.0 0.00 2.67 1.85 87 1010.6
20260507001056 7 273 0.0 0.0 0.00 2.67 1.85 87 1010.7
20260507000554 7 273 0.0 0.0 0.00 2.67 1.85 87 1010.6
20260507000121 7 273 0.0 0.0 0.00 2.67 1.85 87 1010.6
20260506235554 7 273 0.0 0.0 0.00 2.79 1.85 86 1010.5
20260506235056 7 273 0.0 0.0 0.00 2.79 1.85 86 1010.6
20260506234612 7 273 0.0 0.0 0.00 2.79 1.85 86 1010.5
20260506234053 7 273 0.0 0.0 0.00 2.79 1.85 85 1010.5
20260506233554 7 273 0.0 0.0 0.00 2.79 1.85 85 1010.5
20260506233053 7 273 0.0 0.0 0.00 2.79 1.85 85 1010.5
20260506232553 7 273 0.0 0.0 0.00 2.79 1.85 85 1010.4
20260506232051 7 273 0.0 0.0 0.00 2.79 1.85 85 1010.3
20260506231848 7 273 0.0 0.0 0.00 2.79 1.85 85 1010.0
20260506231543 7 273 0.0 0.0 0.00 2.79 1.85 85 1010.2
20260506231040 7 273 0.0 1.6 0.00 2.79 1.85 85 1010.3
20260506230540 7 273 0.0 3.2 0.00 2.79 1.85 85 1010.2
20260506230038 7 273 0.0 3.2 0.00 2.79 1.85 85 1010.2
20260506225540 7 273 0.0 1.6 0.00 2.79 1.85 85 1010.1
20260506225038 7 273 0.0 1.6 0.00 2.79 1.85 85 1010.0
20260506224538 7 273 0.0 0.0 0.00 2.79 1.85 85 1009.9
20260506224037 7 273 0.0 0.0 0.00 2.79 1.85 85 1009.9
20260506223537 7 273 0.0 0.0 0.00 2.79 1.85 85 1010.0
20260506223038 7 273 0.0 0.0 0.00 2.79 1.85 85 1009.9
20260506222537 7 273 0.0 1.6 0.00 2.79 1.85 85 1009.8
20260506222037 7 273 0.0 1.6 0.00 2.79 1.85 85 1009.9
20260506221550 7 273 0.0 0.0 0.00 2.79 1.85 85 1010.0
20260506221036 7 273 0.0 0.0 0.00 2.79 1.85 85 1009.9
20260506220537 7 273 0.0 0.0 0.00 2.79 1.85 86 1010.1
20260506220043 7 273 0.0 1.6 0.00 2.79 1.85 85 1010.2
20260506215535 7 273 0.0 1.6 0.00 2.79 1.85 85 1010.2
20260506215036 7 275 0.0 1.6 0.00 2.79 1.85 85 1010.2
20260506214536 7 276 0.0 1.6 0.00 2.79 1.85 85 1010.1
20260506214035 7 307 0.0 1.6 0.00 2.79 1.85 84 1010.0
20260506213536 7 307 0.0 1.6 0.00 2.79 1.85 86 1010.0
20260506213041 7 307 0.0 4.8 0.00 2.79 1.85 84 1009.9
20260506212532 7 271 1.6 4.8 0.00 2.79 1.85 85 1010.0
20260506212034 7 5 0.0 4.8 0.00 2.79 1.85 85 1009.8
20260506211540 7 38 1.6 4.8 0.00 2.79 1.85 84 1009.7
20260506211030 7 24 0.0 4.8 0.00 2.79 1.85 84 1009.7
20260506210530 7 32 0.0 3.2 0.00 2.79 1.85 86 1009.7
20260506210037 7 47 0.0 4.8 0.00 2.79 1.85 84 1009.9
20260506205528 7 49 0.0 6.4 0.00 2.79 1.85 83 1009.9
20260506205028 7 5 1.6 6.4 0.00 2.79 1.85 84 1009.9
20260506204533 7 16 0.0 4.8 0.00 2.79 1.85 86 1009.9
20260506204027 7 19 1.6 4.8 0.00 2.79 1.85 85 1009.9
20260506203527 7 360 0.0 4.8 0.00 2.79 1.85 85 1009.9
20260506203027 7 280 0.0 6.4 0.00 2.79 1.85 84 1009.9
20260506202527 7 287 1.6 6.4 0.00 2.79 1.85 85 1009.9
20260506202027 7 5 0.0 4.8 0.00 2.79 1.85 84 1009.8
20260506201535 7 332 0.0 9.7 0.00 2.79 1.85 84 1009.8
20260506201026 7 13 1.6 9.7 0.00 2.79 1.85 87 1009.8
20260506200526 7 348 1.6 8.0 0.00 2.79 1.85 84 1009.7
20260506200031 7 323 1.6 8.0 0.00 2.79 1.85 85 1009.6
20260506195526 7 15 1.6 8.0 0.00 2.79 1.85 85 1009.4
20260506195025 7 37 1.6 6.4 0.00 2.79 1.85 86 1009.4
20260506194526 7 15 0.0 9.7 0.00 2.79 1.85 87 1009.5
20260506194024 7 14 1.6 9.7 0.00 2.79 1.85 86 1009.6
20260506193525 7 340 1.6 9.7 0.00 2.79 1.85 87 1009.7
20260506193041 7 360 1.6 4.8 0.00 2.79 1.85 87 1009.7
20260506192524 6 320 0.0 8.0 0.00 2.79 1.85 88 1009.7
20260506192027 6 19 3.2 9.7 0.00 2.79 1.85 88 1009.7
20260506191524 6 13 4.8 11.3 0.00 2.79 1.85 88 1009.7
20260506191024 6 360 1.6 12.9 0.00 2.79 1.85 89 1009.7
20260506190523 6 30 4.8 12.9 0.00 2.79 1.85 88 1009.6
20260506190023 6 333 6.4 12.9 0.00 2.79 1.85 87 1009.6
20260506185521 6 344 3.2 6.4 0.00 2.79 1.85 89 1009.5
20260506185022 6 63 1.6 14.5 0.00 2.79 1.85 90 1009.4
20260506184525 6 33 4.8 16.1 0.00 2.79 1.85 90 1009.6
20260506184020 6 22 4.8 12.9 0.00 2.79 1.85 90 1009.5
20260506183520 6 344 1.6 14.5 0.00 2.79 1.85 91 1009.4
20260506183020 6 49 4.8 14.5 0.00 2.79 1.85 91 1009.6
20260506182518 6 24 4.8 14.5 0.00 2.79 1.85 91 1009.6
20260506182022 6 16 3.2 14.5 0.00 2.79 1.85 91 1009.6
20260506181534 6 14 3.2 12.9 0.00 2.79 1.85 91 1009.7
20260506181018 6 5 1.6 14.5 0.00 2.79 1.85 91 1009.7
20260506180519 6 11 4.8 14.5 0.00 2.79 1.85 91 1009.6
20260506180017 6 20 4.8 8.0 0.00 2.79 1.85 91 1009.2
20260506175519 6 10 4.8 8.0 0.00 2.79 1.85 91 1009.2
20260506175016 6 341 4.8 8.0 0.00 2.79 1.85 91 1009.1
20260506174516 6 338 1.6 9.7 0.00 2.79 1.85 91 1009.0
20260506174019 6 15 3.2 9.7 0.00 2.79 1.85 91 1008.9
20260506173518 6 37 1.6 9.7 0.00 2.79 1.85 91 1008.8
20260506173015 6 347 3.2 9.7 0.00 2.79 1.85 91 1008.7
20260506172516 6 355 1.6 9.7 0.00 2.79 1.85 92 1008.6
20260506172015 6 347 3.2 9.7 0.00 2.79 1.85 92 1008.7
20260506171517 6 15 3.2 17.7 0.00 2.79 1.85 92 1008.6
20260506171017 6 324 6.4 16.1 0.00 2.79 1.85 92 1008.9
20260506170514 6 38 4.8 9.7 0.00 2.79 1.85 92 1008.8
20260506170013 6 13 3.2 12.9 0.00 2.79 1.85 93 1008.7
20260506165517 6 19 3.2 14.5 0.00 2.79 1.85 93 1008.6
20260506165013 6 31 4.8 14.5 0.00 2.79 1.85 92 1008.5
20260506164511 6 13 3.2 9.7 0.00 2.79 1.85 93 1008.5
20260506164015 6 360 3.2 12.9 0.00 2.79 1.85 92 1008.5
20260506163511 6 23 6.4 12.9 0.00 2.79 1.85 92 1008.4
20260506163016 6 36 1.6 9.7 0.00 2.79 1.85 93 1008.3
20260506162512 6 40 1.6 9.7 0.00 2.79 1.85 93 1008.5
20260506162010 6 21 3.2 12.9 0.00 2.79 1.85 93 1008.6
20260506161508 6 11 4.8 12.9 0.00 2.79 1.85 93 1008.5
20260506161011 6 311 1.6 8.0 0.00 2.79 1.85 93 1008.6
20260506160508 6 25 1.6 8.0 0.00 2.79 1.85 93 1008.5
20260506160009 6 27 3.2 8.0 0.03 2.79 1.85 93 1008.6
20260506155506 6 19 1.6 9.7 0.03 2.79 1.85 93 1008.5
20260506155006 6 342 1.6 6.4 0.03 2.79 1.85 94 1008.5
20260506154506 6 24 1.6 6.4 0.03 2.79 1.85 93 1008.5
20260506154004 6 29 3.2 6.4 0.03 2.79 1.85 93 1008.7
20260506153503 6 30 1.6 6.4 0.03 2.79 1.85 93 1008.7
20260506153001 6 355 1.6 6.4 0.03 2.79 1.85 93 1008.7
20260506152504 6 9 1.6 6.4 0.03 2.79 1.85 93 1008.6
20260506152001 6 33 3.2 9.7 0.03 2.79 1.85 93 1008.6
20260506151601 6 22 1.6 12.9 0.03 2.79 1.85 93 1008.6
20260506151100 6 360 4.8 12.9 0.03 2.79 1.85 93 1008.6
20260506150600 6 351 3.2 6.4 0.03 2.79 1.85 93 1008.6
20260506150057 6 28 1.6 12.9 0.00 2.77 1.83 93 1008.5
20260506145556 6 348 3.2 6.4 0.00 2.77 1.83 93 1008.4
20260506145054 6 15 1.6 4.8 0.00 2.77 1.83 93 1008.3
20260506144558 6 15 1.6 4.8 0.00 2.77 1.83 93 1008.1
20260506144059 6 5 3.2 8.0 0.00 2.77 1.83 93 1008.0
20260506143558 6 17 3.2 8.0 0.00 2.77 1.83 93 1008.1
20260506143053 6 12 0.0 8.0 0.00 2.77 1.83 93 1008.0
20260506142553 6 15 1.6 4.8 0.00 2.77 1.83 93 1008.1
20260506142052 6 90 0.0 6.4 0.00 2.77 1.83 93 1008.0
20260506141555 6 89 0.0 6.4 0.00 2.77 1.83 93 1008.0
20260506141055 6 69 0.0 8.0 0.03 2.77 1.83 93 1008.1
20260506140555 6 59 0.0 8.0 0.03 2.77 1.83 93 1008.1
20260506140052 6 24 0.0 6.4 0.03 2.77 1.83 93 1008.2
20260506135552 6 71 0.0 8.0 0.03 2.77 1.83 93 1008.1
20260506135051 6 26 1.6 9.7 0.03 2.77 1.83 93 1008.2
20260506134551 6 60 0.0 9.7 0.03 2.77 1.83 94 1008.1
20260506134054 6 73 1.6 9.7 0.03 2.77 1.83 94 1008.0
20260506133551 5 74 0.0 11.3 0.03 2.77 1.83 94 1008.0
20260506133102 5 58 3.2 11.3 0.03 2.77 1.83 94 1008.0
20260506132551 5 76 3.2 6.4 0.05 2.77 1.83 94 1008.0
20260506132053 5 82 1.6 6.4 0.05 2.77 1.83 94 1008.1
20260506131552 5 76 1.6 8.0 0.08 2.77 1.83 94 1008.1
20260506131051 5 80 1.6 8.0 0.05 2.74 1.80 94 1008.2
20260506130550 5 71 1.6 4.8 0.08 2.74 1.80 94 1008.2
20260506130056 5 45 0.0 4.8 0.08 2.74 1.80 94 1008.3
20260506125549 5 59 1.6 4.8 0.08 2.74 1.80 94 1008.3
20260506125049 5 86 0.0 6.4 0.10 2.74 1.80 94 1008.2
20260506124549 5 80 1.6 6.4 0.10 2.74 1.80 94 1008.1
20260506124049 5 68 1.6 6.4 0.10 2.74 1.80 94 1008.1
20260506123548 5 67 1.6 4.8 0.10 2.74 1.80 94 1008.2
20260506123048 5 61 0.0 4.8 0.13 2.74 1.80 94 1008.3
20260506122547 5 83 0.0 4.8 0.10 2.72 1.78 94 1008.3
20260506122046 5 72 1.6 4.8 0.10 2.72 1.78 94 1008.3
20260506121545 5 49 0.0 4.8 0.10 2.69 1.75 94 1008.4
20260506121044 5 32 1.6 6.4 0.15 2.69 1.75 94 1008.4
20260506120544 5 25 0.0 8.0 0.13 2.67 1.73 94 1008.2
20260506120043 5 78 3.2 8.0 0.15 2.67 1.73 94 1008.1
20260506115543 5 54 0.0 6.4 0.15 2.67 1.73 94 1008.2
20260506115041 5 46 1.6 8.0 0.15 2.64 1.70 94 1008.0
20260506114546 5 94 3.2 8.0 0.15 2.64 1.70 94 1007.8
20260506114039 5 65 3.2 8.0 0.18 2.64 1.70 94 1007.9
20260506113538 5 90 3.2 9.7 0.15 2.62 1.68 94 1008.0
20260506113036 5 86 3.2 9.7 0.18 2.62 1.68 94 1008.0
20260506112536 5 82 1.6 9.7 0.20 2.62 1.68 94 1008.2
20260506112033 5 80 3.2 6.4 0.23 2.62 1.68 94 1008.3
20260506111532 5 65 3.2 9.7 0.25 2.59 1.65 94 1008.1
20260506111030 5 86 3.2 9.7 0.23 2.54 1.60 94 1008.2
20260506110529 5 68 1.6 6.4 0.23 2.51 1.57 94 1008.3
20260506110030 5 82 1.6 4.8 0.23 2.51 1.57 94 1008.2
20260506105528 5 61 1.6 8.0 0.25 2.51 1.57 94 1008.4
20260506105027 5 89 3.2 9.7 0.23 2.49 1.55 94 1008.4
20260506104553 5 71 1.6 9.7 0.23 2.49 1.55 94 1008.5
20260506104029 5 65 0.0 9.7 0.23 2.46 1.52 94 1008.5
20260506103528 5 86 3.2 9.7 0.20 2.44 1.50 94 1008.5
20260506103027 5 65 1.6 11.3 0.20 2.44 1.50 94 1008.5
20260506102525 5 53 1.6 11.3 0.20 2.41 1.45 94 1008.6
20260506102025 5 30 3.2 6.4 0.18 2.39 1.42 94 1008.7
20260506101525 5 65 1.6 4.8 0.13 2.34 1.40 94 1008.4
20260506101026 5 21 0.0 4.8 0.13 2.31 1.37 94 1008.6
20260506100524 5 16 0.0 6.4 0.10 2.29 1.35 94 1008.3
20260506100023 6 84 0.0 6.4 0.13 2.29 1.35 94 1008.2
20260506095523 6 30 0.0 4.8 0.13 2.26 1.32 94 1008.1
20260506095023 6 60 0.0 3.2 0.13 2.26 1.32 94 1007.9
20260506094529 6 84 1.6 4.8 0.15 2.26 1.32 94 1007.9
20260506094023 6 52 0.0 6.4 0.13 2.24 1.30 94 1008.0
20260506093522 6 78 1.6 6.4 0.15 2.24 1.30 94 1007.8
20260506093021 5 102 1.6 6.4 0.18 2.24 1.30 94 1007.8
20260506092521 5 86 3.2 6.4 0.18 2.21 1.27 94 1007.9
20260506092023 5 56 0.0 4.8 0.23 2.21 1.27 94 1007.9
20260506091521 5 37 0.0 6.4 0.25 2.21 1.27 94 1007.9
20260506091021 6 62 1.6 6.4 0.25 2.18 1.24 94 1007.8
20260506090524 6 51 3.2 9.7 0.28 2.18 1.24 94 1007.7
20260506090018 6 60 1.6 8.0 0.28 2.16 1.22 94 1008.1
20260506085517 5 86 3.2 8.0 0.28 2.13 1.19 94 1008.2
20260506085017 6 65 1.6 8.0 0.30 2.13 1.19 94 1008.4
20260506084517 6 61 3.2 8.0 0.30 2.11 1.17 94 1008.5
20260506084019 6 43 0.0 6.4 0.33 2.11 1.17 94 1008.8
20260506083517 6 68 0.0 4.8 0.30 2.08 1.14 94 1008.8
20260506083033 6 78 0.0 4.8 0.30 2.06 1.12 94 1009.0
20260506082516 6 55 1.6 4.8 0.28 2.03 1.09 94 1008.7
20260506082015 6 89 0.0 4.8 0.25 1.98 1.04 94 1008.9
20260506081515 6 25 0.0 11.3 0.23 1.96 1.02 94 1008.7
20260506081017 6 83 3.2 11.3 0.23 1.93 0.99 94 1008.4
20260506080514 6 74 1.6 6.4 0.23 1.91 0.97 94 1008.5
20260506073510 6 81 3.2 12.9 0.30 1.75 0.81 94 1008.2
20260506073007 6 30 1.6 9.7 0.33 1.75 0.81 94 1008.4
20260506072506 7 53 1.6 9.7 0.36 1.75 0.81 94 1008.4
20260506072005 7 9 3.2 9.7 0.36 1.73 0.79 94 1008.5
20260506071505 7 26 1.6 6.4 0.36 1.73 0.79 94 1008.4
20260506071004 7 69 1.6 6.4 0.36 1.70 0.76 94 1008.3
20260506070504 7 18 0.0 6.4 0.33 1.65 0.71 94 1008.3
20260506062058 7 68 0.0 4.8 0.18 1.37 0.43 94 1008.6
20260506061557 7 83 1.6 6.4 0.23 1.37 0.43 94 1008.5
20260506061057 7 64 1.6 4.8 0.23 1.35 0.41 94 1008.5
20260506060600 7 81 0.0 4.8 0.23 1.32 0.38 94 1008.7